Soldotna, AK

8:09 PM AKST on December 09, 2019 (GMT -0900)
Soldotna

Weather History for PASX - October, 2019

Change the Weather History Date:

Friday, October 11, 2019

  Actual Average Record
Temperature  
Mean Temperature 42 °F -  
Max Temperature 48 °F 44 °F 57 °F (1969)
Min Temperature 37 °F 31 °F 12 °F (1961)
Degree Days  
Heating Degree Days 22    
Moisture  
Dew Point 33 °F    
Average Humidity 74    
Maximum Humidity 100    
Minimum Humidity 42    
Precipitation  
Precipitation 0.04 in - - ()
Sea Level Pressure  
Sea Level Pressure 29.64 in    
Wind  
Wind Speed 5 mph (NNW)    
Max Wind Speed 10 mph    
Max Gust Speed 20 mph    
Visibility 10 miles    
Events Rain    
Averages and records for this station are not official NWS values.
T = Trace of Precipitation, MM = Missing Value Source: NWS Daily Summary

Daily Weather History Graph

Daily Weather History Graph

Search for Another Location

Airport or City:

Astronomy

Oct. 11, 2019 Rise Set
Actual Time 8:34 AM AKDT 7:05 PM AKDT
Civil Twilight 7:52 AM AKDT 7:48 PM AKDT
Nautical Twilight 7:03 AM AKDT 8:36 PM AKDT
Astronomical Twilight 6:13 AM AKDT 9:26 PM AKDT
Moon 7:22 PM AKDT (10/11) 5:31 AM AKDT (10/11)
Length of Visible Light 11h 56m
Length of Day
10h 31m
Waxing Gibbous, 96% of the Moon is Illuminated
Oct 11
Waxing Gibbous
Oct 13
Full
Oct 21
Last Quarter
Oct 27
New
Nov 4
First Quarter

Hourly Weather History & Observations

Time (AKDT) Temp. Windchill Dew Point Humidity Pressure Visibility Wind Dir Wind Speed Gust Speed Precip Events Conditions
12:56 AM 37.0 °F - 37.0 °F 100% 29.61 in 10.0 mi Calm Calm - N/A   Overcast
1:44 AM 39.2 °F 35.9 °F 35.6 °F 87% 29.58 in 10.0 mi ENE 4.6 mph - 0.01 in Rain Light Rain
1:56 AM 39.0 °F 34.0 °F 36.0 °F 89% 29.62 in 10.0 mi NE 6.9 mph - 0.01 in Rain Light Rain
2:56 AM 37.9 °F 32.1 °F 36.0 °F 93% 29.60 in 10.0 mi North 8.1 mph - 0.01 in Rain Light Rain
3:15 AM 39.2 °F 35.9 °F 35.6 °F 87% 29.57 in 10.0 mi Variable 4.6 mph - 0.00 in Rain Light Rain
3:56 AM 39.0 °F 34.8 °F 35.1 °F 86% 29.59 in 10.0 mi NW 5.8 mph - 0.00 in Rain Light Rain
4:56 AM 39.0 °F 36.8 °F 36.0 °F 89% 29.58 in 10.0 mi Variable 3.5 mph - 0.01 in Rain Light Rain
5:41 AM 39.2 °F 37.0 °F 35.6 °F 87% 29.54 in 10.0 mi North 3.5 mph - 0.01 in Rain Light Rain
5:56 AM 39.0 °F 36.8 °F 36.0 °F 89% 29.57 in 10.0 mi Variable 3.5 mph - 0.01 in Rain Light Rain
6:56 AM 39.0 °F 34.8 °F 36.0 °F 89% 29.56 in 10.0 mi ENE 5.8 mph - 0.00 in Rain Light Rain
7:56 AM 39.0 °F 33.4 °F 35.1 °F 86% 29.55 in 10.0 mi SW 8.1 mph - 0.00 in   Partly Cloudy
8:56 AM 37.9 °F 32.7 °F 35.1 °F 89% 29.57 in 10.0 mi WSW 6.9 mph - N/A   Scattered Clouds
9:56 AM 39.0 °F 33.4 °F 35.1 °F 86% 29.58 in 10.0 mi SW 8.1 mph - N/A   Partly Cloudy
10:56 AM 39.9 °F 34.5 °F 35.1 °F 83% 29.59 in 10.0 mi SSW 8.1 mph - N/A   Clear
11:56 AM 42.1 °F 39.2 °F 36.0 °F 79% 29.60 in 10.0 mi WSW 4.6 mph - N/A   Partly Cloudy
12:56 PM 46.0 °F 43.1 °F 35.1 °F 66% 29.61 in 10.0 mi West 5.8 mph - N/A   Scattered Clouds
1:56 PM 48.0 °F - 26.1 °F 42% 29.64 in 10.0 mi NW 5.8 mph - N/A   Scattered Clouds
2:56 PM 48.0 °F - 30.0 °F 50% 29.65 in 10.0 mi Variable 4.6 mph - N/A   Partly Cloudy
3:56 PM 46.9 °F - 28.9 °F 50% 29.65 in 10.0 mi NE 4.6 mph - N/A   Scattered Clouds
4:56 PM 46.0 °F 43.1 °F 28.0 °F 50% 29.66 in 10.0 mi North 5.8 mph - N/A   Mostly Cloudy
5:56 PM 45.0 °F 40.1 °F 27.0 °F 49% 29.68 in 10.0 mi NNE 9.2 mph - N/A   Overcast
6:56 PM 45.0 °F 40.1 °F 27.0 °F 49% 29.70 in 10.0 mi NNE 9.2 mph 18.4 mph N/A   Overcast
7:56 PM 43.0 °F 39.5 °F 28.0 °F 56% 29.73 in 10.0 mi NNE 5.8 mph - N/A   Overcast
8:56 PM 42.1 °F 37.1 °F 28.9 °F 60% 29.76 in 10.0 mi North 8.1 mph - 0.00 in Rain Light Rain
9:56 PM 39.9 °F 34.5 °F 30.9 °F 70% 29.79 in 10.0 mi North 8.1 mph 19.6 mph 0.00 in Rain Light Rain
10:56 PM 39.9 °F 35.1 °F 30.9 °F 70% 29.81 in 10.0 mi NNW 6.9 mph - 0.00 in   Overcast
11:56 PM 39.9 °F 33.4 °F 32.0 °F 73% 29.81 in 10.0 mi WSW 10.4 mph - 0.00 in   Mostly Cloudy